EHI
94 91 90 89 83 76 73 69 66 60 47 35 27 23 25 30 34 39 45 53 59 58 51 42 29 13 5 4 5 5 4 4 3 1 0 0 0 0 0 0 0 0 0
95 92 89 86 79 72 68 67 63 56 44 33 24 20 23 28 31 36 43 51 58 58 52 42 28 14 8 8 10 10 9 8 5 2 0 0 0 0 0 0 0 0 0
93 92 90 85 77 71 69 65 59 53 44 34 25 20 25 32 32 32 39 46 50 50 48 41 28 16 12 12 16 21 22 19 13 6 2 0 0 0 0 0 0 0 0
74 78 81 76 68 67 65 59 57 57 50 41 31 23 27 38 36 30 33 38 38 37 39 38 30 23 16 13 17 29 38 35 24 12 4 1 0 0 0 0 0 0 0
41 48 53 49 44 44 42 40 48 53 46 37 25 19 28 40 41 33 31 32 31 29 30 32 32 28 22 18 22 38 53 54 37 21 10 6 4 3 1 0 0 0 0
18 21 21 20 18 16 16 20 26 28 24 18 10 10 21 33 39 41 38 36 35 33 28 27 29 29 26 23 30 46 63 68 56 41 31 26 23 16 6 1 0 0 0
8 7 6 5 4 3 4 6 7 7 5 3 1 2 9 17 27 38 44 47 48 46 37 30 32 36 36 32 33 41 53 63 65 63 60 56 53 43 25 8 1 0 0
11 7 4 2 0 0 0 1 2 2 1 0 0 0 1 5 12 23 37 49 57 58 50 42 42 44 48 49 37 27 27 35 47 62 71 72 70 62 43 20 6 1 0
27 19 9 3 1 0 0 1 2 2 1 0 0 0 0 1 3 8 18 34 50 61 59 51 45 44 51 59 50 29 18 18 28 45 60 64 60 51 36 21 10 3 0
39 30 16 7 3 1 0 0 1 1 0 0 0 0 0 0 0 2 5 13 30 49 60 56 46 41 47 58 60 47 31 25 26 33 41 43 36 26 17 11 7 3 1
45 37 25 14 6 1 0 0 0 0 0 0 0 0 0 0 0 0 0 2 10 29 50 59 52 45 50 58 57 48 37 28 24 22 22 22 19 15 11 8 6 4 2
55 48 37 24 11 3 1 0 0 0 1 1 0 0 0 0 0 0 0 0 2 13 36 57 61 58 58 53 40 30 23 18 13 9 8 9 10 11 12 10 7 5 4
73 66 49 31 15 5 2 0 0 0 1 1 1 0 0 0 0 0 0 0 0 5 22 48 65 69 61 44 24 14 10 7 4 2 2 3 3 4 5 5 4 3 4
86 79 61 38 20 8 2 0 0 0 1 1 1 0 0 0 0 0 0 0 0 2 12 32 56 65 56 34 14 5 3 2 1 0 1 1 0 0 0 0 0 1 1
88 84 73 52 28 11 3 0 0 0 0 0 0 0 0 0 0 0 0 0 0 0 4 19 39 49 40 22 7 2 1 0 0 0 0 0 0 0 0 0 0 0 0
76 79 77 61 36 15 5 1 0 0 0 0 0 0 0 0 0 0 0 0 0 0 2 10 23 29 22 10 3 2 1 0 0 0 0 0 0 0 0 0 0 0 0
45 54 61 54 34 14 5 2 0 0 0 0 0 0 0 0 0 0 0 0 0 0 1 3 9 13 10 4 1 1 0 0 0 0 0 0 0 0 0 0 0 0 0
14 22 32 35 25 12 6 3 0 0 0 0 0 0 0 0 0 0 0 0 0 0 0 0 1 3 3 1 0 0 0 0 0 0 0 0 0 0 0 0 0 0 0
1 4 10 16 16 13 8 4 1 0 0 0 0 0 0 0 0 0 0 0 0 0 0 0 0 0 0 0 0 0 0 0 0 0 0 0 0 0 0 0 0 0 0
0 0 2 5 9 9 6 3 1 0 0 0 0 0 0 0 0 0 0 0 0 0 0 0 0 0 0 0 0 0 0 0 0 0 0 0 0 0 0 0 0 0 0
0 0 0 1 2 3 2 1 1 0 0 0 0 0 0 0 0 0 0 0 0 0 0 0 0 0 0 0 0 0 0 0 0 0 0 0 0 0 0 0 0 0 0
0 0 0 0 0 0 0 0 0 0 0 0 0 0 0 0 0 0 0 0 0 0 0 0 0 0 0 0 0 0 0 0 0 0 0 0 0 0 0 0 0 0 0
0 0 0 0 0 0 0 0 0 0 0 0 0 0 0 0 0 0 0 0 0 0 0 0 0 0 0 0 0 0 0 0 0 0 0 0 0 0 0 0 0 0 0
0 0 0 0 0 0 0 0 0 0 0 0 0 0 0 0 0 0 0 0 0 0 0 0 0 0 0 0 0 0 0 0 0 0 0 0 0 0 0 0 0 0 0
0 0 0 0 0 0 0 0 0 0 0 0 0 0 0 0 0 0 0 0 0 0 0 0 0 0 0 0 0 0 0 0 0 0 0 0 0 0 0 0 0 0 0
0 0 0 0 0 0 0 0 0 0 0 0 0 0 0 0 0 0 0 0 0 0 0 0 0 0 0 0 0 0 0 0 0 0 0 0 0 0 0 0 0 0 0
Wind_Speed
3 3 2 2 3 3 2 3 3 3 3 3 4 5 5 6 4 3 3 11 14 15 15 15 16 17 17 16 16 16 17 17 17 18 19 20 20 20 19 18 17 16 15
1 2 3 3 3 3 3 3 3 3 3 3 5 6 7 7 5 5 4 6 13 16 16 16 16 17 18 18 17 17 18 18 18 18 19 20 20 20 20 19 19 18 17
2 3 3 3 3 3 4 4 5 4 5 6 7 8 8 8 8 7 7 6 7 12 16 17 18 18 19 19 19 18 18 18 18 18 18 19 20 21 20 20 19 19 18
3 3 3 3 3 4 4 5 5 4 5 5 6 6 7 7 10 10 9 8 7 8 12 19 20 20 20 20 20 19 18 18 18 18 18 19 20 21 21 20 20 19 19
2 1 2 2 2 3 3 5 2 3 4 4 5 7 8 8 8 11 11 11 10 9 8 11 19 20 21 22 20 20 19 18 18 18 19 19 20 21 21 21 21 20 20
2 3 3 2 3 3 3 3 4 3 4 5 8 8 6 7 8 9 10 10 10 12 11 11 9 13 21 21 20 20 20 19 19 19 19 19 20 20 21 21 21 21 20
1 1 3 3 3 3 3 4 4 5 5 5 5 6 7 9 9 8 9 9 10 11 11 11 9 7 8 19 20 20 21 21 19 19 19 19 19 19 20 21 21 21 21
1 2 2 2 4 4 5 5 4 3 5 5 5 6 6 6 6 9 8 9 10 8 10 12 10 9 7 6 11 20 20 19 19 18 17 17 17 17 18 20 20 20 21
2 1 1 2 3 4 4 4 4 5 4 5 4 4 5 5 6 5 5 5 7 7 7 6 8 8 9 6 7 16 21 19 17 17 15 14 14 15 16 18 19 20 20
3 3 3 2 2 3 5 5 4 3 5 5 4 4 6 7 6 6 7 6 6 6 7 6 5 6 6 6 5 8 14 14 13 12 11 11 11 13 14 16 19 20 20
5 5 5 3 2 4 5 4 4 5 4 5 5 5 6 6 7 6 8 7 6 4 4 4 3 2 2 2 3 6 9 8 6 5 4 5 6 8 11 14 17 19 20
5 7 6 4 3 3 4 4 5 6 5 6 5 5 6 5 5 5 6 6 6 6 3 1 1 2 3 5 7 9 10 9 7 5 4 3 2 1 0 3 6 10 13
3 4 4 3 2 3 4 5 5 6 6 6 5 5 5 6 6 6 6 7 6 5 3 0 2 3 5 6 7 12 11 11 10 9 9 9 10 10 9 8 7 5 3
2 1 3 3 4 4 5 5 4 6 5 5 7 7 5 6 5 5 6 6 6 5 3 1 1 3 5 7 8 10 9 11 12 12 11 12 12 12 13 13 12 12 11
7 4 2 3 4 5 5 5 5 6 5 5 6 7 6 6 5 5 5 5 6 5 4 2 1 3 5 6 7 8 8 12 13 12 12 12 13 13 13 13 14 13 13
8 9 7 5 5 5 6 6 5 5 5 5 5 6 6 6 5 5 5 5 6 6 4 1 2 5 6 8 8 9 10 14 13 13 13 13 13 14 14 14 14 14 14
7 8 8 8 8 7 7 6 6 6 5 5 5 5 6 6 5 5 4 5 5 5 4 1 2 5 8 9 9 8 8 8 8 14 14 14 14 14 15 15 15 14 15
7 8 8 8 9 9 8 7 6 6 5 5 5 5 6 5 6 5 5 6 5 6 5 6 4 4 7 8 9 9 8 8 8 14 16 16 15 15 15 15 14 13 14
9 9 8 8 9 9 9 8 7 6 5 4 3 4 4 5 6 5 6 5 4 5 5 8 6 5 5 6 8 9 10 8 9 11 14 15 15 15 15 14 13 13 13
10 9 9 9 9 10 10 10 8 6 5 4 2 2 2 4 5 6 5 4 2 4 8 9 9 6 5 5 6 8 8 6 7 9 10 11 14 15 15 14 14 14 13
11 9 8 8 8 9 10 10 9 8 6 5 3 1 2 4 5 4 3 1 2 6 8 9 9 7 5 5 5 5 8 7 7 8 8 7 7 7 8 11 13 14 13
10 9 9 8 8 9 10 11 10 7 5 5 3 3 5 4 5 6 8 8 7 8 9 8 8 8 6 4 3 5 7 8 6 5 6 6 6 6 6 5 7 10 11
10 10 9 9 8 7 9 9 10 7 6 5 5 4 5 6 5 5 7 10 12 13 11 8 10 7 5 4 3 4 5 6 5 7 6 7 6 7 6 6 8 9 9
9 8 8 8 7 7 6 6 8 8 7 6 6 6 7 8 6 6 6 7 7 7 8 8 8 7 5 3 3 5 6 5 5 5 7 7 7 7 7 5 7 8 9
8 8 8 8 8 6 4 4 5 5 7 7 7 8 9 9 10 9 7 8 8 7 9 12 11 11 10 7 5 4 5 5 4 4 4 5 6 6 5 4 5 7 7
7 8 9 8 7 5 2 4 6 4 7 6 6 8 11 11 12 9 8 8 9 8 9 10 9 8 7 7 8 6 3 2 5 4 2 4 7 5 4 3 5 5 4
Wind_Direction
236 267 281 287 281 279 246 220 245 251 249 276 284 277 271 265 270 258 202 193 193 203 213 214 215 220 223 223 223 223 223 222 220 219 219 219 218 217 216 215 214 214 215
227 257 265 264 270 289 306 295 272 257 260 262 265 263 259 259 255 247 243 223 214 210 215 220 223 225 224 222 222 222 222 222 221 219 218 218 218 218 218 216 215 214 213
218 239 252 253 252 259 263 262 256 241 239 239 240 240 242 243 240 237 233 233 230 221 222 224 227 225 222 221 220 220 221 221 221 220 218 217 216 216 217 217 216 215 214
217 232 248 252 245 247 243 245 243 246 244 244 244 243 240 236 237 236 233 230 229 233 223 223 226 226 222 220 219 218 218 219 220 220 219 216 215 215 216 217 218 217 215
209 211 271 267 254 267 266 271 267 241 257 258 256 244 235 235 236 238 234 234 231 229 229 227 224 223 224 223 219 217 217 218 219 220 220 218 216 215 216 217 218 218 217
68 49 311 356 354 312 294 304 326 302 278 267 271 270 251 240 235 234 235 235 231 228 227 231 224 224 224 222 218 216 216 217 218 219 220 220 218 216 216 217 218 219 219
76 44 293 355 317 296 322 325 313 303 295 283 279 275 259 246 239 231 227 230 230 225 223 221 220 220 216 219 218 216 217 218 218 218 219 220 220 218 218 218 219 219 219
173 274 23 339 319 331 306 284 289 293 297 301 301 297 287 274 257 249 226 221 225 223 223 223 216 214 218 202 215 221 223 223 222 220 219 219 221 220 219 219 220 219 219
183 218 315 296 315 303 299 326 303 285 289 295 288 289 296 294 314 294 282 247 222 218 222 223 216 215 218 213 200 212 221 222 222 224 223 222 222 222 222 222 222 221 220
196 199 212 247 286 295 296 289 308 320 298 292 291 277 273 288 294 301 305 301 276 236 221 219 220 215 208 199 193 185 203 209 216 224 229 231 230 228 226 226 226 224 221
206 203 198 197 241 269 283 305 309 297 290 286 290 293 290 287 268 267 283 293 299 282 240 212 205 188 166 166 142 135 142 157 177 199 218 235 240 237 232 230 231 230 226
207 198 185 174 218 262 290 296 289 285 279 281 281 280 280 281 283 277 274 281 283 284 275 215 183 139 110 91 105 109 117 120 121 114 101 86 72 68 187 221 228 233 232
231 182 162 148 228 262 270 269 272 275 277 277 276 273 274 273 274 276 276 278 277 284 295 339 100 103 106 104 104 107 103 106 102 96 88 81 76 72 69 69 71 68 58
293 111 147 190 224 245 260 270 279 274 278 284 285 280 275 274 271 270 268 274 280 274 261 241 64 95 102 104 118 111 103 102 100 96 92 87 82 78 75 72 72 71 69
323 316 255 232 238 245 251 260 264 273 278 282 288 289 285 279 275 268 260 250 249 258 251 207 123 111 112 109 131 110 107 106 104 100 96 93 89 85 82 79 75 72 70
337 325 309 285 266 257 251 250 260 270 284 286 284 285 287 283 278 272 264 254 239 236 242 189 145 141 128 118 110 104 107 109 106 105 101 97 93 90 86 82 80 76 73
332 325 312 296 280 267 258 250 252 266 277 289 297 301 301 297 290 282 269 257 243 226 220 160 113 127 120 118 113 112 114 106 107 106 103 99 94 91 87 84 81 79 77
313 314 312 305 291 280 269 259 257 268 279 288 302 311 312 312 307 296 282 262 241 219 185 154 132 126 121 121 120 118 115 109 107 108 105 101 97 92 88 85 81 77 75
301 303 303 302 298 291 283 272 260 256 262 276 297 311 320 324 316 306 291 270 245 214 159 143 133 122 112 119 119 116 113 113 111 114 106 100 98 95 91 87 84 79 75
283 285 290 294 294 293 285 275 266 252 249 255 260 287 325 337 329 314 303 282 228 158 139 136 132 128 118 119 122 126 125 128 131 126 106 106 104 97 94 93 89 84 78
272 274 279 285 291 290 281 279 269 253 235 235 220 203 76 56 27 355 332 335 132 129 131 131 132 130 130 134 135 141 140 139 125 126 126 129 121 107 97 90 87 86 83
263 265 269 274 281 289 306 304 281 261 236 227 201 169 138 120 85 58 61 69 94 121 129 130 135 136 133 134 132 144 142 142 142 157 145 142 129 112 104 95 100 96 91
254 255 260 263 268 279 291 287 269 258 232 216 188 178 167 134 134 110 87 80 79 86 102 118 125 126 130 140 142 156 163 160 147 158 146 130 120 112 111 118 128 119 111
254 257 260 263 263 272 287 274 257 253 241 215 186 172 150 150 152 146 122 99 89 88 107 111 114 114 122 145 173 164 149 136 127 133 134 129 133 127 126 134 154 144 130
254 256 261 256 257 262 270 252 233 247 244 220 187 169 158 157 156 156 133 116 105 96 98 112 117 121 121 116 122 128 130 131 130 126 124 124 134 130 135 145 166 167 152
258 256 257 256 258 255 226 198 201 237 246 224 183 163 164 156 159 160 144 136 129 129 126 120 120 125 119 97 83 82 87 137 143 134 125 118 144 142 145 155 161 171 179